Time,TemperatureF,DewpointF,PressureIn,WindDirection,WindDirectionDegrees,WindSpeedMPH,WindSpeedGustMPH,Humidity,HourlyPrecipIn,Conditions,Clouds,dailyrainin,SoftwareType,DateUTC
2013-04-13 00:00:00,65.1,32.0,30.09,NW,311,9.0,21.0,29,0.00,,,0.00,Wunderground v.1.15,2013-04-13 07:00:00,
2013-04-13 00:15:00,65.4,31.4,30.09,NNW,327,10.0,20.0,28,0.00,,,0.00,Wunderground v.1.15,2013-04-13 07:15:00,
2013-04-13 00:20:00,65.2,31.2,30.09,NW,308,9.0,20.0,28,0.00,,,0.00,Wunderground v.1.15,2013-04-13 07:20:00,
2013-04-13 00:30:00,65.4,31.4,30.09,WNW,302,11.0,11.0,28,0.00,,,0.00,Wunderground v.1.15,2013-04-13 07:30:00,
2013-04-13 00:35:00,65.4,31.4,30.09,WNW,295,11.0,20.0,28,0.00,,,0.00,Wunderground v.1.15,2013-04-13 07:35:00,
2013-04-13 00:45:00,65.3,31.3,30.08,WNW,287,11.0,20.0,28,0.00,,,0.00,Wunderground v.1.15,2013-04-13 07:45:00,
2013-04-13 00:50:00,65.3,31.3,30.08,WNW,293,11.0,11.0,28,0.00,,,0.00,Wunderground v.1.15,2013-04-13 07:50:00,
2013-04-13 01:00:00,65.3,31.3,30.08,NW,309,11.0,11.0,28,0.00,,,0.00,Wunderground v.1.15,2013-04-13 08:00:00,
2013-04-13 01:05:00,65.2,31.2,30.08,NW,323,10.0,19.0,28,0.00,,,0.00,Wunderground v.1.15,2013-04-13 08:05:00,
2013-04-13 01:15:00,65.3,31.3,30.08,WNW,301,11.0,21.0,28,0.00,,,0.00,Wunderground v.1.15,2013-04-13 08:15:00,
2013-04-13 01:25:00,65.2,31.2,30.08,NNW,332,10.0,21.0,28,0.00,,,0.00,Wunderground v.1.15,2013-04-13 08:25:00,
2013-04-13 01:35:00,64.9,31.0,30.08,NW,314,10.0,21.0,28,0.00,,,0.00,Wunderground v.1.15,2013-04-13 08:35:00,
2013-04-13 01:40:00,64.9,31.0,30.08,WNW,299,9.0,9.0,28,0.00,,,0.00,Wunderground v.1.15,2013-04-13 08:40:00,
2013-04-13 01:45:00,64.9,31.0,30.08,NW,315,9.0,21.0,28,0.00,,,0.00,Wunderground v.1.15,2013-04-13 08:45:00,
2013-04-13 01:55:00,65.0,31.1,30.07,NW,312,11.0,11.0,28,0.00,,,0.00,Wunderground v.1.15,2013-04-13 08:55:00,
2013-04-13 02:00:00,64.8,30.9,30.07,NW,318,11.0,11.0,28,0.00,,,0.00,Wunderground v.1.15,2013-04-13 09:00:00,
2013-04-13 02:05:00,64.7,31.7,30.07,NW,304,9.0,22.0,29,0.00,,,0.00,Wunderground v.1.15,2013-04-13 09:05:00,
2013-04-13 02:15:00,64.6,31.6,30.07,NW,320,10.0,22.0,29,0.00,,,0.00,Wunderground v.1.15,2013-04-13 09:15:00,
2013-04-13 02:20:00,64.5,31.5,30.07,NNW,331,9.0,22.0,29,0.00,,,0.00,Wunderground v.1.15,2013-04-13 09:20:00,
2013-04-13 02:30:00,64.3,31.3,30.06,NW,307,9.0,9.0,29,0.00,,,0.00,Wunderground v.1.15,2013-04-13 09:30:00,
2013-04-13 02:35:00,64.3,30.5,30.06,NW,317,8.0,19.0,28,0.00,,,0.00,Wunderground v.1.15,2013-04-13 09:35:00,
2013-04-13 02:45:00,64.3,30.5,30.06,WNW,298,8.0,19.0,28,0.00,,,0.00,Wunderground v.1.15,2013-04-13 09:45:00,
2013-04-13 02:50:00,64.1,30.3,30.06,NW,325,7.0,7.0,28,0.00,,,0.00,Wunderground v.1.15,2013-04-13 09:50:00,
2013-04-13 03:00:00,64.1,29.4,30.06,WNW,294,5.0,5.0,27,0.00,,,0.00,Wunderground v.1.15,2013-04-13 10:00:00,
2013-04-13 03:05:00,64.0,30.2,30.06,NW,321,4.0,16.0,28,0.00,,,0.00,Wunderground v.1.15,2013-04-13 10:05:00,
2013-04-13 03:15:00,63.7,30.0,30.06,NNW,328,2.0,16.0,28,0.00,,,0.00,Wunderground v.1.15,2013-04-13 10:15:00,
2013-04-13 03:20:00,63.4,30.6,30.06,NNW,327,1.0,1.0,29,0.00,,,0.00,Wunderground v.1.15,2013-04-13 10:20:00,
2013-04-13 03:30:00,62.0,31.0,30.06,NNW,327,0.0,16.0,31,0.00,,,0.00,Wunderground v.1.15,2013-04-13 10:30:00,
2013-04-13 03:35:00,61.4,31.3,30.06,NNW,327,0.0,16.0,32,0.00,,,0.00,Wunderground v.1.15,2013-04-13 10:35:00,
2013-04-13 03:45:00,60.9,30.8,30.06,NNW,327,0.0,9.0,32,0.00,,,0.00,Wunderground v.1.15,2013-04-13 10:45:00,
2013-04-13 03:55:00,60.2,30.2,30.06,NNW,327,0.0,9.0,32,0.00,,,0.00,Wunderground v.1.15,2013-04-13 10:55:00,
2013-04-13 04:00:00,59.8,29.9,30.06,NNW,327,0.0,9.0,32,0.00,,,0.00,Wunderground v.1.15,2013-04-13 11:00:00,
2013-04-13 04:05:00,59.8,29.9,30.06,NNW,327,0.0,9.0,32,0.00,,,0.00,Wunderground v.1.15,2013-04-13 11:05:00,
2013-04-13 04:15:00,59.5,29.6,30.05,NNW,327,0.0,0.0,32,0.00,,,0.00,Wunderground v.1.15,2013-04-13 11:15:00,
2013-04-13 04:20:00,59.5,29.6,30.05,NNW,327,0.0,0.0,32,0.00,,,0.00,Wunderground v.1.15,2013-04-13 11:20:00,
2013-04-13 04:25:00,59.5,29.6,30.05,NNW,327,0.0,0.0,32,0.00,,,0.00,Wunderground v.1.15,2013-04-13 11:25:00,
2013-04-13 04:35:00,59.3,29.4,30.05,NNW,327,0.0,0.0,32,0.00,,,0.00,Wunderground v.1.15,2013-04-13 11:35:00,
2013-04-13 04:45:00,59.5,29.6,30.05,NNW,327,0.0,0.0,32,0.00,,,0.00,Wunderground v.1.15,2013-04-13 11:45:00,
2013-04-13 04:50:00,59.6,28.9,30.05,NNW,327,0.0,0.0,31,0.00,,,0.00,Wunderground v.1.15,2013-04-13 11:50:00,
2013-04-13 04:55:00,59.4,28.7,30.05,NNW,327,0.0,0.0,31,0.00,,,0.00,Wunderground v.1.15,2013-04-13 11:55:00,
2013-04-13 05:00:00,59.1,28.5,30.05,NNW,327,0.0,0.0,31,0.00,,,0.00,Wunderground v.1.15,2013-04-13 12:00:00,
2013-04-13 05:10:00,59.1,28.5,30.05,NNW,327,0.0,3.0,31,0.00,,,0.00,Wunderground v.1.15,2013-04-13 12:10:00,
2013-04-13 05:15:00,59.2,28.5,30.05,NNW,327,0.0,3.0,31,0.00,,,0.00,Wunderground v.1.15,2013-04-13 12:15:00,
2013-04-13 05:20:00,59.4,28.7,30.05,NNW,327,0.0,3.0,31,0.00,,,0.00,Wunderground v.1.15,2013-04-13 12:20:00,
2013-04-13 05:30:00,60.1,26.9,30.05,NNW,346,0.0,3.0,28,0.00,,,0.00,Wunderground v.1.15,2013-04-13 12:30:00,
2013-04-13 05:35:00,60.5,27.2,30.05,NNW,346,0.0,4.0,28,0.00,,,0.00,Wunderground v.1.15,2013-04-13 12:35:00,
2013-04-13 05:45:00,60.0,27.6,30.05,NNW,346,0.0,4.0,29,0.00,,,0.00,Wunderground v.1.15,2013-04-13 12:45:00,
2013-04-13 05:50:00,59.9,27.5,30.05,NNW,346,0.0,4.0,29,0.00,,,0.00,Wunderground v.1.15,2013-04-13 12:50:00,
2013-04-13 05:55:00,59.8,27.4,30.05,NNW,346,0.0,4.0,29,0.00,,,0.00,Wunderground v.1.15,2013-04-13 12:55:00,
2013-04-13 06:00:00,59.3,27.0,30.05,NNW,346,0.0,4.0,29,0.00,,,0.00,Wunderground v.1.15,2013-04-13 13:00:00,
2013-04-13 06:05:00,58.9,25.8,30.05,NNW,346,0.0,4.0,28,0.00,,,0.00,Wunderground v.1.15,2013-04-13 13:05:00,
2013-04-13 06:15:00,58.4,26.2,30.05,NNW,346,0.0,0.0,29,0.00,,,0.00,Wunderground v.1.15,2013-04-13 13:15:00,
2013-04-13 06:20:00,58.3,25.3,30.05,NNW,346,0.0,0.0,28,0.00,,,0.00,Wunderground v.1.15,2013-04-13 13:20:00,
2013-04-13 06:30:00,59.1,26.0,30.05,NNW,346,0.0,0.0,28,0.00,,,0.00,Wunderground v.1.15,2013-04-13 13:30:00,
2013-04-13 06:35:00,58.8,25.7,30.05,NNW,346,0.0,4.0,28,0.00,,,0.00,Wunderground v.1.15,2013-04-13 13:35:00,
2013-04-13 06:45:00,59.6,26.4,30.05,NNW,343,0.0,4.0,28,0.00,,,0.00,Wunderground v.1.15,2013-04-13 13:45:00,
2013-04-13 06:50:00,60.0,25.9,30.05,NNW,343,0.0,4.0,27,0.00,,,0.00,Wunderground v.1.15,2013-04-13 13:50:00,
2013-04-13 07:00:00,61.7,26.4,30.05,North,356,0.0,4.0,26,0.00,,,0.00,Wunderground v.1.15,2013-04-13 14:00:00,
2013-04-13 07:05:00,62.7,26.3,30.05,North,356,0.0,4.0,25,0.00,,,0.00,Wunderground v.1.15,2013-04-13 14:05:00,
2013-04-13 07:10:00,63.1,26.7,30.05,North,356,0.0,3.0,25,0.00,,,0.00,Wunderground v.1.15,2013-04-13 14:10:00,
2013-04-13 07:25:00,62.8,27.4,30.05,North,356,0.0,3.0,26,0.00,,,0.00,Wunderground v.1.15,2013-04-13 14:25:00,
2013-04-13 07:30:00,63.1,28.5,30.05,North,356,0.0,3.0,27,0.00,,,0.00,Wunderground v.1.15,2013-04-13 14:30:00,
2013-04-13 07:35:00,63.7,28.1,30.05,North,356,0.0,3.0,26,0.00,,,0.00,Wunderground v.1.15,2013-04-13 14:35:00,
2013-04-13 07:40:00,64.4,27.8,30.05,North,356,0.0,0.0,25,0.00,,,0.00,Wunderground v.1.15,2013-04-13 14:40:00,
2013-04-13 07:50:00,66.8,26.7,30.05,NNW,327,4.0,7.0,22,0.00,,,0.00,Wunderground v.1.15,2013-04-13 14:50:00,
2013-04-13 08:00:00,67.9,26.5,30.05,NW,326,7.0,9.0,21,0.00,,,0.00,Wunderground v.1.15,2013-04-13 15:00:00,
2013-04-13 08:05:00,68.3,25.6,30.05,NNW,331,7.0,13.0,20,0.00,,,0.00,Wunderground v.1.15,2013-04-13 15:05:00,
2013-04-13 08:15:00,69.1,26.3,30.05,NNW,337,5.0,8.0,20,0.00,,,0.00,Wunderground v.1.15,2013-04-13 15:15:00,
2013-04-13 08:20:00,69.5,25.4,30.05,NNW,340,5.0,13.0,19,0.00,,,0.00,Wunderground v.1.15,2013-04-13 15:20:00,
2013-04-13 08:30:00,69.8,24.3,30.05,NNW,339,9.0,13.0,18,0.00,,,0.00,Wunderground v.1.15,2013-04-13 15:30:00,
2013-04-13 08:35:00,70.1,24.6,30.05,NNW,348,9.0,14.0,18,0.00,,,0.00,Wunderground v.1.15,2013-04-13 15:35:00,
2013-04-13 08:45:00,70.6,25.0,30.04,NW,307,9.0,15.0,18,0.00,,,0.00,Wunderground v.1.15,2013-04-13 15:45:00,
2013-04-13 08:50:00,71.0,25.3,30.04,NW,304,8.0,15.0,18,0.00,,,0.00,Wunderground v.1.15,2013-04-13 15:50:00,
2013-04-13 08:55:00,70.7,25.1,30.04,NW,318,11.0,16.0,18,0.00,,,0.00,Wunderground v.1.15,2013-04-13 15:55:00,
2013-04-13 09:00:00,70.6,25.0,30.03,WNW,300,15.0,15.0,18,0.00,,,0.00,Wunderground v.1.15,2013-04-13 16:00:00,
2013-04-13 09:10:00,71.1,25.4,30.04,NW,312,13.0,13.0,18,0.00,,,0.00,Wunderground v.1.15,2013-04-13 16:10:00,
2013-04-13 09:15:00,71.1,25.4,30.04,NNW,327,14.0,14.0,18,0.00,,,0.00,Wunderground v.1.15,2013-04-13 16:15:00,
2013-04-13 09:20:00,71.1,25.4,30.04,NW,323,15.0,15.0,18,0.00,,,0.00,Wunderground v.1.15,2013-04-13 16:20:00,
2013-04-13 09:30:00,71.3,26.9,30.04,NNW,327,12.0,12.0,19,0.00,,,0.00,Wunderground v.1.15,2013-04-13 16:30:00,
2013-04-13 09:35:00,71.2,25.5,30.04,NNW,337,12.0,16.0,18,0.00,,,0.00,Wunderground v.1.15,2013-04-13 16:35:00,
2013-04-13 09:40:00,71.3,25.6,30.04,NNW,329,13.0,26.0,18,0.00,,,0.00,Wunderground v.1.15,2013-04-13 16:40:00,
2013-04-13 09:50:00,71.7,27.2,30.04,NNW,332,12.0,26.0,19,0.00,,,0.00,Wunderground v.1.15,2013-04-13 16:50:00,
2013-04-13 10:01:00,71.7,27.2,30.04,WNW,303,14.0,14.0,19,0.00,,,0.00,Wunderground v.1.15,2013-04-13 17:01:00,
2013-04-13 10:10:00,71.3,26.9,30.04,NNW,346,15.0,15.0,19,0.00,,,0.00,Wunderground v.1.15,2013-04-13 17:10:00,
2013-04-13 10:20:00,72.5,27.9,30.03,NW,318,12.0,12.0,19,0.00,,,0.00,Wunderground v.1.15,2013-04-13 17:20:00,
2013-04-13 10:25:00,71.8,27.3,30.04,WNW,294,12.0,25.0,19,0.00,,,0.00,Wunderground v.1.15,2013-04-13 17:25:00,
2013-04-13 10:30:00,72.0,27.5,30.03,WNW,287,14.0,25.0,19,0.00,,,0.00,Wunderground v.1.15,2013-04-13 17:30:00,
2013-04-13 10:35:00,72.0,27.5,30.03,NW,318,14.0,28.0,19,0.00,,,0.00,Wunderground v.1.15,2013-04-13 17:35:00,
2013-04-13 10:45:00,72.1,26.2,30.03,NNW,333,15.0,28.0,18,0.00,,,0.00,Wunderground v.1.15,2013-04-13 17:45:00,
2013-04-13 10:50:00,71.7,27.2,30.03,WNW,296,15.0,28.0,19,0.00,,,0.00,Wunderground v.1.15,2013-04-13 17:50:00,
2013-04-13 11:00:00,71.7,27.2,30.03,NW,321,17.0,28.0,19,0.00,,,0.00,Wunderground v.1.15,2013-04-13 18:00:00,
2013-04-13 11:05:00,71.4,28.2,30.03,WNW,302,17.0,33.0,20,0.00,,,0.00,Wunderground v.1.15,2013-04-13 18:05:00,
2013-04-13 11:15:00,71.3,28.1,30.03,NW,326,18.0,21.0,20,0.00,,,0.00,Wunderground v.1.15,2013-04-13 18:15:00,
2013-04-13 11:20:00,72.0,28.7,30.03,WNW,291,18.0,33.0,20,0.00,,,0.00,Wunderground v.1.15,2013-04-13 18:20:00,
2013-04-13 11:25:00,72.2,27.6,30.03,WNW,287,18.0,33.0,19,0.00,,,0.00,Wunderground v.1.15,2013-04-13 18:25:00,
2013-04-13 11:30:00,72.3,26.4,30.03,WNW,300,18.0,18.0,18,0.00,,,0.00,Wunderground v.1.15,2013-04-13 18:30:00,
2013-04-13 11:35:00,72.6,27.9,30.03,WNW,300,16.0,36.0,19,0.00,,,0.00,Wunderground v.1.15,2013-04-13 18:35:00,
2013-04-13 11:40:00,72.0,27.5,30.02,NNW,328,18.0,36.0,19,0.00,,,0.00,Wunderground v.1.15,2013-04-13 18:40:00,
2013-04-13 11:45:00,71.7,27.2,30.03,NW,309,19.0,36.0,19,0.00,,,0.00,Wunderground v.1.15,2013-04-13 18:45:00,
2013-04-13 11:50:00,72.1,28.8,30.02,NNW,340,17.0,17.0,20,0.00,,,0.00,Wunderground v.1.15,2013-04-13 18:50:00,
2013-04-13 11:55:00,72.1,30.0,30.02,NNW,333,17.0,20.0,21,0.00,,,0.00,Wunderground v.1.15,2013-04-13 18:55:00,
2013-04-13 12:00:00,72.6,30.4,30.02,WNW,289,17.0,36.0,21,0.00,,,0.00,Wunderground v.1.15,2013-04-13 19:00:00,
2013-04-13 12:05:00,72.3,29.0,30.02,WNW,293,17.0,36.0,20,0.00,,,0.00,Wunderground v.1.15,2013-04-13 19:05:00,
2013-04-13 12:10:00,72.7,29.3,30.02,WNW,294,17.0,17.0,20,0.00,,,0.00,Wunderground v.1.15,2013-04-13 19:10:00,
2013-04-13 12:15:00,73.0,29.5,30.02,NW,304,17.0,18.0,20,0.00,,,0.00,Wunderground v.1.15,2013-04-13 19:15:00,
2013-04-13 12:20:00,73.4,25.9,30.01,NW,306,18.0,30.0,17,0.00,,,0.00,Wunderground v.1.15,2013-04-13 19:20:00,
2013-04-13 12:25:00,73.4,27.3,30.01,NNW,333,19.0,30.0,18,0.00,,,0.00,Wunderground v.1.15,2013-04-13 19:25:00,
2013-04-13 12:30:00,73.8,26.2,30.01,NW,321,19.0,30.0,17,0.00,,,0.00,Wunderground v.1.15,2013-04-13 19:30:00,
2013-04-13 12:35:00,73.4,25.9,30.01,WNW,303,21.0,36.0,17,0.00,,,0.00,Wunderground v.1.15,2013-04-13 19:35:00,
2013-04-13 12:45:00,74.2,26.5,30.01,NW,307,18.0,36.0,17,0.00,,,0.00,Wunderground v.1.15,2013-04-13 19:45:00,
2013-04-13 12:50:00,73.8,26.2,30.01,NNW,342,19.0,36.0,17,0.00,,,0.00,Wunderground v.1.15,2013-04-13 19:50:00,
2013-04-13 13:00:00,74.7,27.0,30.00,NW,321,18.0,18.0,17,0.00,,,0.00,Wunderground v.1.15,2013-04-13 20:00:00,
2013-04-13 13:05:00,74.5,26.8,30.00,NW,309,17.0,22.0,17,0.00,,,0.00,Wunderground v.1.15,2013-04-13 20:05:00,
2013-04-13 13:15:00,74.5,26.8,30.00,WNW,294,19.0,20.0,17,0.00,,,0.00,Wunderground v.1.15,2013-04-13 20:15:00,
2013-04-13 13:20:00,74.6,26.9,29.99,NW,318,18.0,34.0,17,0.00,,,0.00,Wunderground v.1.15,2013-04-13 20:20:00,
2013-04-13 13:30:00,74.4,28.1,29.99,NNW,331,18.0,34.0,18,0.00,,,0.00,Wunderground v.1.15,2013-04-13 20:30:00,
2013-04-13 13:40:00,74.7,29.7,29.98,NW,315,16.0,16.0,19,0.00,,,0.00,Wunderground v.1.15,2013-04-13 20:40:00,
2013-04-13 13:45:00,74.6,28.3,29.98,NW,321,15.0,38.0,18,0.00,,,0.00,Wunderground v.1.15,2013-04-13 20:45:00,
2013-04-13 13:50:00,73.8,30.2,29.98,WNW,291,17.0,17.0,20,0.00,,,0.00,Wunderground v.1.15,2013-04-13 20:50:00,
2013-04-13 14:00:00,74.1,29.2,29.98,WNW,299,17.0,17.0,19,0.00,,,0.00,Wunderground v.1.15,2013-04-13 21:00:00,
2013-04-13 14:05:00,73.9,29.0,29.97,NNW,335,18.0,18.0,19,0.00,,,0.00,Wunderground v.1.15,2013-04-13 21:05:00,
2013-04-13 14:15:00,74.0,29.1,29.97,NW,306,18.0,30.0,19,0.00,,,0.00,Wunderground v.1.15,2013-04-13 21:15:00,
2013-04-13 14:20:00,73.7,28.8,29.97,NNW,341,19.0,30.0,19,0.00,,,0.00,Wunderground v.1.15,2013-04-13 21:20:00,
2013-04-13 14:30:00,73.8,27.6,29.97,NNW,333,19.0,19.0,18,0.00,,,0.00,Wunderground v.1.15,2013-04-13 21:30:00,
2013-04-13 14:40:00,74.4,28.1,29.97,NW,318,16.0,34.0,18,0.00,,,0.00,Wunderground v.1.15,2013-04-13 21:40:00,
2013-04-13 14:45:00,74.3,28.0,29.96,NNW,331,17.0,34.0,18,0.00,,,0.00,Wunderground v.1.15,2013-04-13 21:45:00,
2013-04-13 14:50:00,74.4,28.1,29.96,NW,317,18.0,34.0,18,0.00,,,0.00,Wunderground v.1.15,2013-04-13 21:50:00,
2013-04-13 15:00:00,74.4,29.4,29.96,WNW,302,18.0,34.0,19,0.00,,,0.00,Wunderground v.1.15,2013-04-13 22:00:00,
2013-04-13 15:05:00,74.0,29.1,29.95,WNW,302,18.0,34.0,19,0.00,,,0.00,Wunderground v.1.15,2013-04-13 22:05:00,
2013-04-13 15:15:00,73.5,29.9,29.95,NNW,327,19.0,33.0,20,0.00,,,0.00,Wunderground v.1.15,2013-04-13 22:15:00,
2013-04-13 15:20:00,73.3,31.0,29.95,NW,323,20.0,33.0,21,0.00,,,0.00,Wunderground v.1.15,2013-04-13 22:20:00,
2013-04-13 15:30:00,73.1,29.6,29.95,NNW,348,21.0,37.0,20,0.00,,,0.00,Wunderground v.1.15,2013-04-13 22:30:00,
2013-04-13 15:35:00,73.4,31.1,29.95,NNW,333,20.0,39.0,21,0.00,,,0.00,Wunderground v.1.15,2013-04-13 22:35:00,
2013-04-13 15:45:00,73.4,28.6,29.94,NW,311,19.0,39.0,19,0.00,,,0.00,Wunderground v.1.15,2013-04-13 22:45:00,
2013-04-13 15:50:00,73.4,27.3,29.94,NNW,348,20.0,20.0,18,0.00,,,0.00,Wunderground v.1.15,2013-04-13 22:50:00,
2013-04-13 15:55:00,73.2,28.4,29.95,NNW,337,21.0,21.0,19,0.00,,,0.00,Wunderground v.1.15,2013-04-13 22:55:00,
2013-04-13 16:00:00,73.0,29.5,29.94,NNW,328,19.0,39.0,20,0.00,,,0.00,Wunderground v.1.15,2013-04-13 23:00:00,
2013-04-13 16:10:00,72.4,29.0,29.94,NNW,335,22.0,22.0,20,0.00,,,0.00,Wunderground v.1.15,2013-04-13 23:10:00,
2013-04-13 16:15:00,72.4,30.2,29.94,NNW,340,21.0,24.0,21,0.00,,,0.00,Wunderground v.1.15,2013-04-13 23:15:00,
2013-04-13 16:20:00,72.2,32.3,29.94,NW,312,20.0,20.0,23,0.00,,,0.00,Wunderground v.1.15,2013-04-13 23:20:00,
2013-04-13 16:30:00,72.0,32.1,29.94,NW,309,18.0,38.0,23,0.00,,,0.00,Wunderground v.1.15,2013-04-13 23:30:00,
2013-04-13 16:35:00,71.4,32.7,29.94,NW,323,20.0,41.0,24,0.00,,,0.00,Wunderground v.1.15,2013-04-13 23:35:00,
2013-04-13 16:40:00,71.5,35.7,29.93,NNW,347,21.0,41.0,27,0.00,,,0.00,Wunderground v.1.15,2013-04-13 23:40:00,
2013-04-13 16:50:00,71.1,34.5,29.94,NNW,344,20.0,20.0,26,0.00,,,0.00,Wunderground v.1.15,2013-04-13 23:50:00,
2013-04-13 17:00:00,70.5,35.8,29.93,NW,325,22.0,41.0,28,0.00,,,0.00,Wunderground v.1.15,2013-04-14 00:00:00,
2013-04-13 17:05:00,70.3,36.5,29.93,NW,325,23.0,41.0,29,0.00,,,0.00,Wunderground v.1.15,2013-04-14 00:05:00,
2013-04-13 17:15:00,70.3,36.5,29.92,NW,318,21.0,36.0,29,0.00,,,0.00,Wunderground v.1.15,2013-04-14 00:15:00,
2013-04-13 17:20:00,69.9,36.2,29.92,NNW,338,19.0,19.0,29,0.00,,,0.00,Wunderground v.1.15,2013-04-14 00:20:00,
2013-04-13 17:30:00,69.3,35.7,29.92,NNW,328,18.0,36.0,29,0.00,,,0.00,Wunderground v.1.15,2013-04-14 00:30:00,
2013-04-13 17:35:00,68.8,36.9,29.93,NNW,328,18.0,41.0,31,0.00,,,0.00,Wunderground v.1.15,2013-04-14 00:35:00,
2013-04-13 17:45:00,68.4,36.6,29.93,NW,316,16.0,41.0,31,0.00,,,0.00,Wunderground v.1.15,2013-04-14 00:45:00,
2013-04-13 17:50:00,68.3,35.6,29.94,NNW,337,14.0,14.0,30,0.00,,,0.00,Wunderground v.1.15,2013-04-14 00:50:00,
2013-04-13 17:55:00,68.1,35.5,29.94,North,6,14.0,41.0,30,0.00,,,0.00,Wunderground v.1.15,2013-04-14 00:55:00,
2013-04-13 18:00:00,68.3,36.5,29.93,NW,320,15.0,41.0,31,0.00,,,0.00,Wunderground v.1.15,2013-04-14 01:00:00,
2013-04-13 18:10:00,67.7,37.5,29.93,NW,322,15.0,30.0,33,0.00,,,0.00,Wunderground v.1.15,2013-04-14 01:10:00,
2013-04-13 18:15:00,67.3,38.0,29.93,WNW,299,14.0,30.0,34,0.00,,,0.00,Wunderground v.1.15,2013-04-14 01:15:00,
2013-04-13 18:20:00,67.0,39.1,29.93,NW,310,15.0,15.0,36,0.00,,,0.00,Wunderground v.1.15,2013-04-14 01:20:00,
2013-04-13 18:30:00,66.9,38.3,29.93,NW,322,16.0,30.0,35,0.00,,,0.00,Wunderground v.1.15,2013-04-14 01:30:00,
2013-04-13 18:35:00,66.9,39.1,29.93,NW,318,16.0,31.0,36,0.00,,,0.00,Wunderground v.1.15,2013-04-14 01:35:00,
2013-04-13 18:45:00,66.5,39.4,29.93,NNW,328,16.0,31.0,37,0.00,,,0.00,Wunderground v.1.15,2013-04-14 01:45:00,
2013-04-13 18:50:00,66.4,37.9,29.93,NNW,327,18.0,31.0,35,0.00,,,0.00,Wunderground v.1.15,2013-04-14 01:50:00,
2013-04-13 18:55:00,66.3,37.8,29.92,NW,307,17.0,31.0,35,0.00,,,0.00,Wunderground v.1.15,2013-04-14 01:55:00,
2013-04-13 19:00:00,66.0,36.1,29.92,NNW,343,16.0,31.0,33,0.00,,,0.00,Wunderground v.1.15,2013-04-14 02:00:00,
2013-04-13 19:10:00,65.5,37.1,29.92,NNW,328,19.0,32.0,35,0.00,,,0.00,Wunderground v.1.15,2013-04-14 02:10:00,
2013-04-13 19:15:00,65.2,36.8,29.92,NW,316,19.0,32.0,35,0.00,,,0.00,Wunderground v.1.15,2013-04-14 02:15:00,
2013-04-13 19:20:00,65.0,36.7,29.92,NW,318,17.0,32.0,35,0.00,,,0.00,Wunderground v.1.15,2013-04-14 02:20:00,
2013-04-13 19:30:00,64.6,36.3,29.92,NNW,344,16.0,32.0,35,0.00,,,0.00,Wunderground v.1.15,2013-04-14 02:30:00,
2013-04-13 19:35:00,64.5,35.5,29.93,NNW,327,15.0,34.0,34,0.00,,,0.00,Wunderground v.1.15,2013-04-14 02:35:00,
2013-04-13 19:45:00,64.4,33.1,29.92,NW,309,13.0,24.0,31,0.00,,,0.00,Wunderground v.1.15,2013-04-14 02:45:00,
2013-04-13 19:50:00,64.4,33.1,29.92,NNW,331,14.0,34.0,31,0.00,,,0.00,Wunderground v.1.15,2013-04-14 02:50:00,
2013-04-13 19:55:00,64.5,31.5,29.92,NW,317,16.0,34.0,29,0.00,,,0.00,Wunderground v.1.15,2013-04-14 02:55:00,
2013-04-13 20:05:00,64.3,30.5,29.92,NW,313,15.0,34.0,28,0.00,,,0.00,Wunderground v.1.15,2013-04-14 03:05:00,
2013-04-13 20:15:00,64.4,29.7,29.93,NW,314,17.0,27.0,27,0.00,,,0.00,Wunderground v.1.15,2013-04-14 03:15:00,
2013-04-13 20:20:00,64.2,29.5,29.93,WNW,302,16.0,16.0,27,0.00,,,0.00,Wunderground v.1.15,2013-04-14 03:20:00,
2013-04-13 20:30:00,64.1,28.5,29.93,NW,316,16.0,16.0,26,0.00,,,0.00,Wunderground v.1.15,2013-04-14 03:30:00,
2013-04-13 20:35:00,64.1,26.5,29.93,NW,314,15.0,29.0,24,0.00,,,0.00,Wunderground v.1.15,2013-04-14 03:35:00,
2013-04-13 20:45:00,63.9,25.3,29.93,NW,316,14.0,29.0,23,0.00,,,0.00,Wunderground v.1.15,2013-04-14 03:45:00,
2013-04-13 20:50:00,63.8,26.3,29.93,NW,312,15.0,15.0,24,0.00,,,0.00,Wunderground v.1.15,2013-04-14 03:50:00,
2013-04-13 20:55:00,63.4,26.9,29.94,NNW,339,16.0,16.0,25,0.00,,,0.00,Wunderground v.1.15,2013-04-14 03:55:00,
2013-04-13 21:00:00,63.0,29.4,29.93,NNW,332,15.0,29.0,28,0.00,,,0.00,Wunderground v.1.15,2013-04-14 04:00:00,
2013-04-13 21:05:00,62.7,30.8,29.93,NNW,331,17.0,29.0,30,0.00,,,0.00,Wunderground v.1.15,2013-04-14 04:05:00,
2013-04-13 21:10:00,62.8,29.2,29.93,NNW,334,17.0,29.0,28,0.00,,,0.00,Wunderground v.1.15,2013-04-14 04:10:00,
2013-04-13 21:20:00,62.4,31.3,29.94,NW,305,18.0,18.0,31,0.00,,,0.00,Wunderground v.1.15,2013-04-14 04:20:00,
2013-04-13 21:25:00,62.1,31.9,29.95,NW,318,17.0,29.0,32,0.00,,,0.00,Wunderground v.1.15,2013-04-14 04:25:00,
2013-04-13 21:30:00,61.9,31.7,29.96,North,355,16.0,16.0,32,0.00,,,0.00,Wunderground v.1.15,2013-04-14 04:30:00,
2013-04-13 21:35:00,61.7,31.5,29.96,NNW,339,17.0,18.0,32,0.00,,,0.00,Wunderground v.1.15,2013-04-14 04:35:00,
2013-04-13 21:45:00,61.4,32.0,29.95,NW,324,16.0,29.0,33,0.00,,,0.00,Wunderground v.1.15,2013-04-14 04:45:00,
2013-04-13 21:50:00,61.2,31.1,29.95,NW,309,16.0,16.0,32,0.00,,,0.00,Wunderground v.1.15,2013-04-14 04:50:00,
2013-04-13 22:00:00,61.0,32.4,29.95,WNW,295,15.0,15.0,34,0.00,,,0.00,Wunderground v.1.15,2013-04-14 05:00:00,
2013-04-13 22:05:00,60.9,32.3,29.95,NW,304,16.0,16.0,34,0.00,,,0.00,Wunderground v.1.15,2013-04-14 05:05:00,
2013-04-13 22:15:00,60.6,32.1,29.95,NNW,327,15.0,31.0,34,0.00,,,0.00,Wunderground v.1.15,2013-04-14 05:15:00,
2013-04-13 22:20:00,60.6,32.1,29.95,NW,311,13.0,31.0,34,0.00,,,0.00,Wunderground v.1.15,2013-04-14 05:20:00,
2013-04-13 22:30:00,60.5,31.2,29.94,NNW,341,14.0,14.0,33,0.00,,,0.00,Wunderground v.1.15,2013-04-14 05:30:00,
2013-04-13 22:35:00,60.5,31.2,29.95,NW,307,12.0,27.0,33,0.00,,,0.00,Wunderground v.1.15,2013-04-14 05:35:00,
2013-04-13 22:40:00,60.4,31.9,29.95,North,351,12.0,12.0,34,0.00,,,0.00,Wunderground v.1.15,2013-04-14 05:40:00,
2013-04-13 22:45:00,60.3,31.8,29.95,WNW,288,11.0,27.0,34,0.00,,,0.00,Wunderground v.1.15,2013-04-14 05:45:00,
2013-04-13 22:55:00,60.0,30.8,29.95,West,275,8.0,27.0,33,0.00,,,0.00,Wunderground v.1.15,2013-04-14 05:55:00,
2013-04-13 23:00:00,59.7,31.3,29.95,WNW,300,6.0,27.0,34,0.00,,,0.00,Wunderground v.1.15,2013-04-14 06:00:00,
2013-04-13 23:05:00,59.7,31.3,29.95,NW,308,8.0,27.0,34,0.00,,,0.00,Wunderground v.1.15,2013-04-14 06:05:00,
2013-04-13 23:15:00,59.8,32.1,29.95,NNW,329,8.0,21.0,35,0.00,,,0.00,Wunderground v.1.15,2013-04-14 06:15:00,
2013-04-13 23:20:00,59.9,32.2,29.95,West,276,7.0,7.0,35,0.00,,,0.00,Wunderground v.1.15,2013-04-14 06:20:00,
2013-04-13 23:30:00,60.0,32.9,29.95,West,270,5.0,21.0,36,0.00,,,0.00,Wunderground v.1.15,2013-04-14 06:30:00,
2013-04-13 23:35:00,60.0,33.6,29.94,WNW,301,5.0,21.0,37,0.00,,,0.00,Wunderground v.1.15,2013-04-14 06:35:00,
2013-04-13 23:40:00,60.0,34.3,29.94,NW,309,7.0,14.0,38,0.00,,,0.00,Wunderground v.1.15,2013-04-14 06:40:00,
2013-04-13 23:50:00,59.9,34.9,29.95,WNW,287,7.0,7.0,39,0.00,,,0.00,Wunderground v.1.15,2013-04-14 06:50:00,